Regional Weather Roundup
Issued by NWS

Home | Current Version | Previous Version | Text Only | Print | Product List | Glossary Off
Versions: 1 2 3 4 5 6 7 8 9 10 11 12 13 14 15 16 17 18 19 20 21 22 23 24 25 26 27

000
ASUS45 KSLC 201010
RWRUT

UTAH REGIONAL WEATHER ROUNDUP
NATIONAL WEATHER SERVICE SALT LAKE CITY UT
300 AM MST TUE FEB 20 2018

UTZ001>011-023>025-201100-

NORTHERN UTAH

CITY           SKY/WX    TMP DP  RH WIND       PRES   REMARKS
BRIGHAM CITY   CLOUDY    21  10  63 E3        29.91R
HILL AFB       CLOUDY    17  11  75 N6        29.87R WCI   9
LOGAN          CLOUDY    19   9  65 N6        29.89R WCI  11
OGDEN          FLURRIES  19  11  70 NW8       29.88R WCI   9
SALT LAKE CITY MOCLDY    20  17  88 NW3       29.90R
TOOELE VALLEY  CLOUDY    19  10  68 W5        29.92R WCI  13
WENDOVER       MOCLDY    16   4  59 VRB3      29.93R
HEBER CITY       N/A      9   3  78 CALM      29.79R
WEST JORDAN    MOCLDY    14  14 100 SW3       29.90R

$$

UTZ011>015-024>027-201100-

CENTRAL/NORTHEAST UTAH

CITY           SKY/WX    TMP DP  RH WIND       PRES   REMARKS
PROVO AIRPORT  FLURRIES  19  16  88 CALM      29.90R
MOAB/CANYONLAN MOCLDY   N/A N/A N/A W12       29.79R
DELTA            N/A      5   3  92 S7        29.90R VSB 1/2 WCI  -7
PRICE          PTCLDY    14   0  53 NW8       29.76R WCI   3
RICHFIELD      CLOUDY    16  16 100 CALM      29.87R
VERNAL         LGT SNOW   9   4  80 CALM      29.84R

$$

UTZ013>016-019>022-027-201100-

SOUTHERN UTAH

CITY           SKY/WX    TMP DP  RH WIND       PRES   REMARKS
BRYCE CANYON   MOCLDY     0  -3  87 CALM      29.76R
CEDAR CITY       N/A    N/A N/A N/A MISG      29.85R
MILFORD        MOCLDY     9   5  84 CALM      29.88R FOG
ST GEORGE      MOSUNNY   32  21  64 S7        29.96R WCI  26
HANKSVILLE     MOCLDY    23   3  42 NW6       29.86R WCI  16
KANAB          MOCLDY    21  10  63 W3        29.92R
BLANDING         N/A     22  10  58 SW5       29.86R WCI  16

$$

REGIONAL REPORTS     COLORADO/ARIZONA

CITY           SKY/WX    TMP DP  RH WIND       PRES   REMARKS
CRAIG, CO      LGT SNOW   2  -3  80 E5        29.80R WCI  -8
GRAND JUNCTION CLOUDY    20  19  96 SW3       29.81R
RIFLE, CO      CLOUDY    14   9  80 W6        29.79F WCI   5
MONTROSE, CO   LGT SNOW  19  16  88 NW8       29.79R FOG     WCI   9
CORTEZ, CO     PTCLDY    15   9  76 W6        29.81R WCI   6
COLORADO CITY    N/A     21  18  86 S3        29.91R
PAGE, AZ       PTCLDY    29   6  38 W5        29.86R WCI  24
GRAND CANYON   PTCLDY    -5  -8  87 CALM      29.84R
KINGMAN, AZ    CLEAR     23  13  65 SE6       29.96R WCI  16
FLAGSTAFF, AZ  CLEAR     13   6  74 S6        29.83R WCI   4

$$

REGIONAL REPORTS    NEVADA/IDAHO/WYOMING

CITY           SKY/WX    TMP DP  RH WIND       PRES   REMARKS
LAS VEGAS, NV  PTCLDY    40   7  25 NW17      29.99R WCI  31
ELY, NY        PTCLDY     0  -5  79 S9        29.86R WCI -15
ELKO, NV       CLOUDY    16   6  65 SW5       29.92R WCI   9
POCATELLO, ID  LGT SNOW  13   9  84 SW20      29.91R FOG     WCI  -5
BURLEY, ID     CLOUDY    11   2  67 SW16      29.93R WCI  -6
EVANSTON, WY   CLOUDY     4   0  83 W12       29.71R WCI -12
ROCK SPRINGS,  CLOUDY    -3 -10  72 CALM      29.74R HAZE

$$




USA.gov is the U.S. government's official web portal to all federal, state and local government web resources and services.